sat.trackr.live / text

‹ back to catalog

HAWK-B

NORAD 43794 · 2018-099AN

PAYLOAD ACTIVE UNKNOWN

§ Identity

Operator
Country
US
Launch date
2018-12-03
Launch site
AFWTR
Launch vehicle
Mass (kg)
RCS (m²)

Purposes: tech_demo

External: N2YO · Heavens-Above · Gunter

§ Orbital elements

Epoch: 2026-09-14T21:42:34.359840Z

Period
94.50 min
Inclination
97.3867°
Eccentricity
0.0030893
Mean motion
15.23738874 rev/d
Perigee alt
473.3 km
Apogee alt
515.8 km
Semi-major
6,872.7 km
B*
2.2259e-4
RAAN
308.2088°
Arg perigee
351.3287°
Mean anomaly
8.7412°
Rev number
42,669

§ Raw data

HAWK-B1 43794U 18099AN  26257.90456435  .00005348  00000+0  22259-3 0  99942 43794  97.3867 308.2088 0030893 351.3287   8.7412 15.23738874426697

JSON: /api/v1/satellites/43794 · /tle

For live sub-satellite position, see the globe view (requires WebGL).

§ Visibility from observer

Set your observer location to see the next 7 days of passes ≥ 10°. The values pass through the URL so the page stays shareable.

No JS? Fill the form by hand. The geolocation button needs JavaScript.